NOAA-14
1 23455U 94089A   12277.88634289  .00000004  00000-0  25043-4 0 00573
2 23455 098.8236 359.9914 0009920 011.6506 348.4893 14.13873018916153
NOAA-15
1 25338U 98030A   12277.88238655  .00000173  00000-0  92651-4 0 04279
2 25338 098.7003 263.8273 0010893 147.9559 212.2289 14.25126022748338
RESURS
1 25394U 98043A   12277.93862878  .00000097  00000-0  59833-4 0 02156
2 25394 098.3307 260.5101 0000844 333.4510 026.6627 14.24299431739888
FENGYUN1
1 25730U 99025A   12278.80276133  .00001208  00000-0  71097-3 0  7099
2 25730 098.8524 235.9311 0021168 046.8409 313.4517 14.09771062690059
OKEAN-0
1 25860U 99039A   12278.80521419  .00001027  00000-0  16257-3 0  7522
2 25860 097.9511 239.2948 0000573 050.7483 309.3776 14.74327006710720
NOAA-16
1 26536U 00055A   12277.82024913  .00000514  00000-0  30129-3 0 09189
2 26536 099.0804 321.5604 0011322 135.8578 224.3465 14.12789029620378
NOAA-17
1 27453U 02032A   12277.89745229  .00000280  00000-0  13820-3 0 08618
2 27453 098.3285 299.4104 0011258 193.7303 166.3572 14.24489578534239
NOAA-18
1 28654U 05018A   12277.93212952  .00000316  00000-0  19838-3 0 03436
2 28654 099.0596 236.9971 0013788 206.8582 153.1851 14.11709501379901
NOAA-19
1 33591U 09005A   12277.89363777  .00000513  00000-0  30761-3 0 05315
2 33591 098.8718 216.3738 0015018 073.6916 286.5914 14.11395185188348
HUBBLE
1 20580U 90037B   12278.04747098  .00002994  00000-0  20570-3 0   827
2 20580 028.4689 150.9861 0003504 140.6891 219.3878 15.02858790 31125
ISS
1 25544U 98067A   12278.82122685  .00025880  00000-0  44884-3 0  4117
2 25544 051.6464 296.5983 0018412 129.2636 226.5080 15.50516204795042
CO-58
1 28895U 05043F   12277.58896704  .00001193  00000-0  25310-3 0 02935
2 28895 097.8956 139.0109 0017801 166.8338 193.3335 14.60771178369482
FALCON
1 30776U 07006E   12277.57582791  .00007006  00000-0  44369-3 0 04659
2 30776 035.4319 334.4308 0002271 230.7569 129.2947 15.08379938306623
MAST
1 31126U 07012K   12278.48737979  .00000817  00000-0  19146-3 0  5735
2 31126 097.8758 283.2094 0094494 129.5258 231.4330 14.54273894290159
CAPE1
1 31130U 07012P   12277.58065381  .00000989  00000-0  23354-3 0 05849
2 31130 097.8840 278.6872 0101656 146.0750 214.6993 14.53088470289517
COMPASS
1 32787U 08021E   12278.75781257  .00003402  00000-0  40972-3 0  4270
2 32787 097.7878 337.6238 0016065 063.1355 297.1454 14.84429351240063
AAUSAT2
1 32788U 08021F   12277.82643519  .00003873  00000-0  46164-3 0  4187
2 32788 097.7871 337.1579 0016017 067.7267 292.5474 14.84780574239953
DO-64
1 32789U 08021G   12278.63032313  .00006492  00000-0  73655-3 0  4356
2 32789 097.8019 340.4099 0015492 059.5035 300.7605 14.86578684240130
CO-66
1 32791U 08021J   12277.64660671  .00002953  00000-0  36219-3 0 04176
2 32791 097.7879 336.1889 0016773 068.6096 291.6921 14.83762654239828
RS-30
1 32953U 08025A   12278.83414341  .00000010  00000-0  00000 0 0  2011
2 32953 082.5003 226.9444 0020392 068.8941 291.4320 12.43028152198181
PHARMSAT
1 35002U 09028B   12226.86484473  .07728342  73476-5  57159-3 0   789
2 35002 040.4341 050.6671 0012079 300.9773 059.0492 16.39309245183554
METEOR-M
1 35865U 09049A   12278.78544814 -.00000083  00000-0 -17882-4 0  8396
2 35865 098.6404 330.9860 0003330 091.5801 268.5760 14.21870120158174
RS-38
1 35869U 09049E   12278.71971612  .00000087  00000-0  59002-4 0  8238
2 35869 098.6377 330.8980 0005518 092.3072 267.8729 14.22090410158183
JUGNU
1 37839U 11058B   12277.78280963  .00000620  00000-0  19019-3 0 02418
2 37839 019.9596 060.3096 0019206 340.3503 019.6161 14.12085568050617
SRMSAT
1 37841U 11058D   12278.69284855  .00000264  00000-0  00000 0 0  2427
2 37841 019.9699 061.8374 0012003 310.6014 049.3366 14.10166470 50666
RAX-2
1 37853U 11061D   12277.86369432  .00007216  00000-0  56660-3 0 03115
2 37853 101.7046 007.5568 0243446 040.7818 321.1319 14.80977820050482
AUBIESAT
1 37854U 11061E   12278.86833767  .00005509  00000-0  42921-3 0  3044
2 37854 101.7072 009.4234 0243575 037.3976 324.3868 14.81444237 50625
HRBE
1 37855U 11061F   12277.81350390  .00007854  00000-0  60683-3 0 03045
2 37855 101.7078 007.8006 0244998 040.2603 321.6455 14.81249505050466
RS-39
1 38051U 11062C   12278.81562591  .00015285  00000-0  59315-3 0  7630
2 38051 051.6397 356.7651 0013846 070.0062 032.9947 15.26203053 38709
E-STAR
1 38079U 12006C   12278.48518885  .00061336  00000-0  14805-2 0  5505
2 38079 069.4857 064.6073 0707135 109.3247 258.5464 14.22942666 33083
GOLIAT
1 38085U 12006J   12278.48740678  .00059028  00000-0  14188-2 0  5160
2 38085 069.4873 065.2746 0713193 109.6907 258.2457 14.21745117 33067
HORYU-2
1 38340U 12025D   12278.88580632  .00002103  00000-0  35689-3 0  1798
2 38340 098.1845 218.9168 0012582 347.8719 012.2022 14.70239287 20595
RS-40
1 38736U 12041D   12277.67696518  .00000010  00000-0  00000-0 0 00714
2 38736 082.4788 315.0678 0019075 163.8936 196.2761 12.42646648008388
PROITERES
1 38756U 12047B   12278.88592976  .00001013  00000-0  16249-3 0   954
2 38756 098.2835 344.9095 0012357 193.7070 166.3795 14.73900714  3786
AENEAS
1 38760U 0        12278.53401541  .00005424  00000-0  50270-3 0 00349
2 38760 064.6757 337.4563 0218907 283.6539 220.0928 14.79040195003034
OBJECT D
1 38761U 0        12278.53286792  .00003542  00000-0  33262-3 0 00306
2 38761 064.6753 337.4447 0219609 283.7006 224.2856 14.79139013003036
